Showing default

RCM 1, 44322

Orbit data source: Space-Track

RCM 1, 44322 is a payload satellite owned by CSA (CA) in SSO that was launched on Wed, 12 Jun 2019 UTC via an FALCON 9 launch vehicle from the Air Force Western Test Range (AFWTR). Payload-class satellites include a variety of spacecraft equipped with specific instruments for various scientific and technological missions. These include communications satellites like Starlink; space stations such as the ISS; scientific satellites like the Hubble; Earth observation satellites from companies like Planet Labs, Umbra, and HawkEye 360; GPS; miniature CubeSats for education and research; and military/defense satellites.

Loading next visibility...
Identifier
44322, 2019-033A
Orbit
SSO
Last TLE update
8 hours ago
Origin
Manufacturer
BALM/MAXAR
Mission
Operational Civil Radar Imaging
Bus & Motor
MAC-200, Unknown motor
Mass
1,450 kg wet, ~1,400 kg dry
Launch date (UTC)
2019-06-12 (6 years ago)
Launch vehicle
FALCON 9
Launch site
Air Force Western Test Range (AFWTR)
Object type
Payload
Rocket body
Debris
Shape & HBR
Box + 2 Pan, 7 m
Radar Cross Section
10.097 m², Large (>1 m²)

Expand to show TLE details & history

TLE from 8 hours ago
0 RCM 1
1 44322U 19033A   25128.95573280  .00001394  00000-0  14097-3 0  9999
2 44322  97.7600 137.1690 0001521  88.7017 271.4376 14.92588773321788
Epoch: 2025-05-08T22:56Z
Definitive object data (Epoch: 2025-05-08T22:56:15.313Z)
Latitude
-0.0001°
Longitude
-73.91359°
Altitude
592.883 km
Speed
7.564 km/s
True Right ascension
09h 08m 40s
True Declination
0° 00' 00"
Sunlit
Object was in daylight at TLE epoch
Visualization TLE readout
Latitude
-16.57254°
Longitude
-71.2748°
Altitude
596.761 km
Speed
7.56 km/s
Apparent Right ascension
06h 48m 52s
Apparent Declination
-37° 03' 08"
Sunlit
Object is in daylight
Visualization observer readout
Local Sidereal Time
15:03:23
Azimuth
254.962° W
Elevation
-46.521°
Doppler factor
1
Orbital elements
Apogee altitude
587.944 km
Perigee altitude
585.825 km
Semi-major axis
6,965.022 km
Eccentricity
0.0001521
Inclination
97.76°
RAAN
137.169°
Arg. of periapsis
88.7017°
True anomaly
271.42018°
Mean anomaly
271.4376°
Eccentric anomaly
271.42889°
Mean motion
3.73387 °/min
BSTAR
0.00014097
Orbital period
96.41 mins
Loading maneuver chart data...
Loading SW <> Apogee altitude chart data...
Loading historical data...
Loading historical data...
Loading historical data...
Loading historical data...
Loading historical data...
Loading historical data...
Loading historical data...
Other satellites on launch #33 in the year 2019 (2019-06-12 UTC)

RCM 1 Visibility forecast

Observer location: undefined°, undefined°

Span
Click to sort rows by Start time (UTC) header in descending order
Start Az.
Max El. time (UTC)
Max El. Az.
Max El.
End time (UTC)
End Az.
4 mins2025-05-09 12:24:28.552Z61.056° ENE2025-05-09 12:26:28.552Z94.865° ESE16.906°2025-05-09 12:28:28.552Z127.874° SE
6 mins2025-05-09 13:59:28.552Z344.222° N2025-05-09 14:02:28.552Z273.15° WNW28.878°2025-05-09 14:05:28.552Z225.002° WSW
7 mins2025-05-10 00:48:28.552Z184.592° SSW2025-05-10 00:51:28.552Z261.292° W39.891°2025-05-10 00:55:28.552Z338.882° N
|